{"data":{"norad_id":52650,"intl_designator":"2022-052BE","name":"STARLINK-3891","alt_names":[],"object_type":"PAYLOAD","status":"ACTIVE","operator":null,"country":"US","launch_date":"2022-05-14","launch_site_code":"AFETR","launch_vehicle":null,"mission":null,"orbit_class":"UNKNOWN","rcs_meters":null,"size_class":null,"mass_kg":null,"dimensions":null,"purposes":["comms"],"wikipedia_slug":null,"has_3d_model":false,"image_url":null,"decayed_at":null,"tle_current":{"epoch":"2026-05-24T18:31:49.268928Z","epoch_age_seconds":98226,"freshness":"FRESH","line1":"1 52650U 22052BE  26144.77209802  .00000627  00000+0  57494-4 0  9998","line2":"2 52650  53.2145 267.6804 0001206  83.4913 276.6216 15.08840226222765","mean_motion":15.08840226,"eccentricity":0.0001206,"inclination_deg":53.2145,"raan_deg":267.6804,"arg_perigee_deg":83.4913,"mean_anomaly_deg":276.6216,"bstar":5.7494e-5,"rev_number":22276,"period_min":95.437540382755,"perigee_km":538.908401881,"apogee_km":540.5769944642,"semimajor_km":6917.8796981726,"source":"CELESTRAK","updated_at":"2026-05-25T13:38:17.208663Z"}}}